Regional Weather Roundup
Issued by NWS

Home | Current Version | Previous Version | Graphics & Text | Print | Product List | Glossary Off
Versions: 1 2 3 4 5 6 7 8 9 10 11 12 13 14 15 16 17 18 19 20 21 22 23 24 25 26 27 28 29 30 31 32 33 34 35 36 37 38 39 40 41 42 43 44 45 46 47 48 49 50

095
ASUS43 KTOP 210708
RWRKS

WEATHER ROUNDUP FOR KANSAS
NATIONAL WEATHER SERVICE GOODLAND KS
100 AM CST SAT JAN 21 2017

NOTE:  "FAIR" INDICATES FEW OR NO CLOUDS BELOW 12,000 FEET WITH NO
SIGNIFICANT WEATHER AND/OR OBSTRUCTIONS TO VISIBILITY.

KSZ001>006-013>018-027>032-041>047-210800-
NORTHWEST KANSAS

CITY           SKY/WX    TMP DP  RH WIND       PRES   REMARKS
GOODLAND       CLEAR     30  28  92 W8        29.45F
HAYS           CLEAR     35  33  92 SW9       29.46S
HILL CITY      CLEAR     36  34  92 W10       29.44F WCI  28
RUSSELL        PTCLDY    34  33  96 SW8       29.44S
$$

KSZ061>065-074>080-084>089-210800-
SOUTHWEST KANSAS

CITY           SKY/WX    TMP DP  RH WIND       PRES   REMARKS
DODGE CITY     CLEAR     34  32  92 W7        29.49S
ELKHART          N/A     31  23  72 S8          N/A
GARDEN CITY    CLEAR     28  27  96 W9        29.50S
GREAT BEND     PTCLDY    34  33  96 SW7       29.48S
LIBERAL        CLEAR     30  25  80 SW8       29.51F
PRATT          CLEAR     32  30  94 W9        29.49F
$$

KSZ066>073-081>083-090>101-210800-
SOUTHEAST KANSAS

CITY           SKY/WX    TMP DP  RH WIND       PRES   REMARKS
CHANUTE        CLEAR     46  37  71 SW14      29.47R
COFFEYVILLE    CLEAR     49  36  61 S8        29.50R
HUTCHINSON     CLEAR     40  37  89 W12       29.47S WCI  33
MEDICINE LODGE   N/A     36  33  89 W6        29.51S
NEWTON         PTCLDY    38  37  97 SW12      29.47R WCI  30
PARSONS        CLEAR     50  36  58 S8        29.49S
WICHITA INTL   CLEAR     35  35 100 W7        29.49S
WICHITA JABRA  CLEAR     41  38  89 W14       29.48R
WICHITA MCCONL CLEAR     39  37  92 W7        29.48S
WINFIELD       CLEAR     41  37  86 W8        29.51R
$$

KSZ007>012-019>026-033>040-048>060-102>105-210800-
NORTHEAST KANSAS

CITY           SKY/WX    TMP DP  RH WIND       PRES   REMARKS
CONCORDIA      CLOUDY    42  42 100 W8        29.42S
EMPORIA        CLEAR     35  35 100 S9        29.43F
LAWRENCE       CLOUDY    38  38 100 SE7       29.42F FOG
MANHATTAN      CLOUDY    43  41  93 SW6       29.43F FOG
MARYSVILLE     CLOUDY    43  43 100 SW3       29.41F FOG
OLATHE IND     FOG       39  38  96 CALM      29.43F VSB 3/4
OLATHE EXE     CLEAR     38  38 100 S5        29.42F FOG
SALINA           N/A    N/A N/A N/A MISG        N/A
TOPEKA BILLARD CLOUDY    42  40  92 SW6       29.43S FOG
TOPEKA FORBES  FOG       39  37  92 W6        29.42S VSB 1/2
$$




USA.gov is the U.S. government's official web portal to all federal, state and local government web resources and services.